| time (UTC) | temp F | wind direction | speed MPH | gust MPH | rain 1hr in | rain 24hr in | rain mn in | humidity % | barometer mb |
| 20260903234546 | 98 | 163 | 4.0 | 8.0 | 0.00 | 0.00 | 0.00 | 42 | 1008.7 |
| 20260903233046 | 98 | 92 | 4.0 | 11.0 | 0.00 | 0.00 | 0.00 | 42 | 1008.6 |
| 20260903231546 | 98 | 103 | 6.0 | 12.0 | 0.00 | 0.00 | 0.00 | 42 | 1008.8 |
| 20260903230049 | 99 | 180 | 6.0 | 11.0 | 0.00 | 0.00 | 0.00 | 41 | 1008.7 |
| 20260903224544 | 99 | 168 | 3.0 | 11.0 | 0.00 | 0.00 | 0.00 | 41 | 1008.8 |
| 20260903223043 | 99 | 147 | 2.0 | 11.0 | 0.00 | 0.00 | 0.00 | 41 | 1008.8 |
| 20260903221542 | 99 | 207 | 5.0 | 13.0 | 0.00 | 0.00 | 0.00 | 42 | 1008.8 |
| 20260903220042 | 98 | 166 | 7.0 | 17.0 | 0.00 | 0.00 | 0.00 | 42 | 1008.8 |
| 20260903214551 | 98 | 147 | 4.0 | 18.0 | 0.00 | 0.00 | 0.00 | 43 | 1008.9 |
| 20260903213046 | 98 | 113 | 7.0 | 17.0 | 0.00 | 0.00 | 0.00 | 43 | 1009.0 |
| 20260903211538 | 98 | 167 | 8.0 | 15.0 | 0.00 | 0.00 | 0.00 | 43 | 1009.1 |
| 20260903210043 | 97 | 162 | 7.0 | 15.0 | 0.00 | 0.00 | 0.00 | 44 | 1009.2 |
| 20260903204535 | 97 | 166 | 9.0 | 18.0 | 0.00 | 0.00 | 0.00 | 44 | 1009.3 |
| 20260903203033 | 98 | 168 | 5.0 | 14.0 | 0.00 | 0.00 | 0.00 | 43 | 1009.5 |
| 20260903201535 | 98 | 138 | 4.0 | 14.0 | 0.00 | 0.00 | 0.00 | 44 | 1009.8 |
| 20260903200029 | 97 | 141 | 11.0 | 19.0 | 0.00 | 0.00 | 0.00 | 45 | 1009.9 |
| 20260903194526 | 97 | 160 | 7.0 | 10.0 | 0.00 | 0.00 | 0.00 | 44 | 1010.2 |
| 20260903193022 | 96 | 118 | 4.0 | 16.0 | 0.00 | 0.00 | 0.00 | 46 | 1010.3 |
| 20260903191520 | 95 | 189 | 8.0 | 17.0 | 0.00 | 0.00 | 0.00 | 47 | 1010.6 |
| 20260903190020 | 95 | 124 | 9.0 | 17.0 | 0.00 | 0.00 | 0.00 | 47 | 1010.6 |
| 20260903184517 | 94 | 207 | 9.0 | 15.0 | 0.00 | 0.00 | 0.00 | 47 | 1010.6 |
| 20260903183016 | 94 | 169 | 8.0 | 16.0 | 0.00 | 0.00 | 0.00 | 48 | 1010.8 |
| 20260903181515 | 94 | 187 | 10.0 | 15.0 | 0.00 | 0.00 | 0.00 | 48 | 1010.9 |
| 20260903180019 | 93 | 208 | 9.0 | 17.0 | 0.00 | 0.00 | 0.00 | 49 | 1011.1 |
| 20260903174512 | 94 | 188 | 6.0 | 16.0 | 0.00 | 0.00 | 0.00 | 50 | 1011.3 |
| 20260903173009 | 92 | 158 | 4.0 | 14.0 | 0.00 | 0.00 | 0.00 | 52 | 1011.4 |
| 20260903171510 | 92 | 154 | 7.0 | 19.0 | 0.00 | 0.00 | 0.00 | 52 | 1011.5 |
| 20260903170007 | 91 | 163 | 8.0 | 18.0 | 0.00 | 0.00 | 0.00 | 53 | 1011.7 |
| 20260903164505 | 91 | 166 | 8.0 | 18.0 | 0.00 | 0.00 | 0.00 | 53 | 1011.8 |
| 20260903163003 | 90 | 187 | 6.0 | 18.0 | 0.00 | 0.00 | 0.00 | 54 | 1011.9 |
| 20260903161604 | 89 | 137 | 6.0 | 17.0 | 0.00 | 0.00 | 0.00 | 56 | 1011.9 |
| 20260903160058 | 89 | 185 | 8.0 | 15.0 | 0.00 | 0.00 | 0.00 | 56 | 1012.0 |
| 20260903154600 | 87 | 185 | 11.0 | 17.0 | 0.00 | 0.00 | 0.00 | 58 | 1012.0 |
| 20260903153107 | 86 | 162 | 9.0 | 20.0 | 0.00 | 0.00 | 0.00 | 59 | 1012.2 |
| 20260903151557 | 86 | 205 | 8.0 | 18.0 | 0.00 | 0.00 | 0.00 | 60 | 1012.2 |
| 20260903144551 | 84 | 168 | 7.0 | 13.0 | 0.00 | 0.00 | 0.00 | 64 | 1012.2 |
| 20260903143101 | 84 | 157 | 6.0 | 20.0 | 0.00 | 0.00 | 0.00 | 65 | 1012.2 |
| 20260903141550 | 83 | 211 | 8.0 | 15.0 | 0.00 | 0.00 | 0.00 | 65 | 1012.2 |
| 20260903140049 | 82 | 199 | 7.0 | 15.0 | 0.00 | 0.00 | 0.00 | 66 | 1012.1 |
| 20260903134550 | 81 | 208 | 6.0 | 16.0 | 0.00 | 0.00 | 0.00 | 68 | 1012.2 |
| 20260903133048 | 81 | 205 | 6.0 | 12.0 | 0.00 | 0.00 | 0.00 | 68 | 1012.2 |
| 20260903131549 | 80 | 185 | 6.0 | 12.0 | 0.00 | 0.00 | 0.00 | 69 | 1012.3 |
| 20260903130047 | 79 | 149 | 4.0 | 12.0 | 0.00 | 0.00 | 0.00 | 69 | 1012.1 |
| 20260903124549 | 79 | 164 | 5.0 | 10.0 | 0.00 | 0.00 | 0.00 | 70 | 1012.3 |
| 20260903123045 | 79 | 195 | 4.0 | 8.0 | 0.00 | 0.00 | 0.00 | 69 | 1012.1 |
| 20260903121543 | 79 | 181 | 4.0 | 9.0 | 0.00 | 0.00 | 0.00 | 69 | 1012.0 |
| 20260903120048 | 79 | 168 | 5.0 | 10.0 | 0.00 | 0.00 | 0.00 | 69 | 1011.7 |
| 20260903114541 | 79 | 184 | 6.0 | 12.0 | 0.00 | 0.00 | 0.00 | 68 | 1011.6 |
| 20260903113037 | 79 | 193 | 8.0 | 16.0 | 0.00 | 0.00 | 0.00 | 68 | 1011.5 |
| 20260903111548 | 80 | 189 | 6.0 | 15.0 | 0.00 | 0.00 | 0.00 | 67 | 1011.3 |
| 20260903110035 | 80 | 179 | 7.0 | 14.0 | 0.00 | 0.00 | 0.00 | 67 | 1011.4 |
| 20260903104535 | 80 | 146 | 4.0 | 14.0 | 0.00 | 0.00 | 0.00 | 66 | 1011.3 |
| 20260903103037 | 80 | 176 | 5.0 | 9.0 | 0.00 | 0.00 | 0.00 | 66 | 1011.3 |
| 20260903101531 | 80 | 191 | 4.0 | 9.0 | 0.00 | 0.00 | 0.00 | 65 | 1011.1 |
| 20260903100032 | 80 | 168 | 4.0 | 9.0 | 0.00 | 0.00 | 0.00 | 65 | 1011.0 |
| 20260903094530 | 80 | 203 | 3.0 | 6.0 | 0.00 | 0.00 | 0.00 | 65 | 1011.1 |
| 20260903093041 | 80 | 158 | 2.0 | 4.0 | 0.00 | 0.00 | 0.00 | 65 | 1011.1 |
| 20260903091536 | 80 | 154 | 3.0 | 6.0 | 0.00 | 0.00 | 0.00 | 65 | 1011.2 |
| 20260903090033 | 80 | 153 | 1.0 | 4.0 | 0.00 | 0.00 | 0.00 | 65 | 1011.2 |
| 20260903084541 | 80 | 165 | 2.0 | 5.0 | 0.00 | 0.00 | 0.00 | 66 | 1011.3 |
| 20260903083030 | 79 | 169 | 3.0 | 4.0 | 0.00 | 0.00 | 0.00 | 68 | 1011.3 |
| 20260903081528 | 79 | 151 | 1.0 | 2.0 | 0.00 | 0.00 | 0.00 | 68 | 1011.0 |
| 20260903080025 | 80 | 151 | 1.0 | 3.0 | 0.00 | 0.00 | 0.00 | 68 | 1011.0 |
| 20260903074520 | 81 | 151 | 1.0 | 2.0 | 0.00 | 0.00 | 0.00 | 66 | 1011.0 |
| 20260903073018 | 82 | 164 | 1.0 | 3.0 | 0.00 | 0.00 | 0.00 | 62 | 1011.0 |
| 20260903071515 | 83 | 168 | 2.0 | 4.0 | 0.00 | 0.00 | 0.00 | 61 | 1011.1 |
| 20260903070023 | 83 | 164 | 0.0 | 3.0 | 0.00 | 0.00 | 0.00 | 61 | 1011.1 |
| 20260903064511 | 84 | 143 | 0.0 | 3.0 | 0.00 | 0.00 | 0.00 | 60 | 1011.2 |
| 20260903063011 | 85 | 195 | 2.0 | 4.0 | 0.00 | 0.00 | 0.00 | 58 | 1011.1 |
| 20260903061514 | 85 | 159 | 1.0 | 3.0 | 0.00 | 0.00 | 0.00 | 58 | 1011.1 |
| 20260903060011 | 84 | 172 | 2.0 | 4.0 | 0.00 | 0.00 | 0.00 | 60 | 1011.2 |
| 20260903054513 | 84 | 129 | 0.0 | 2.0 | 0.00 | 0.00 | 0.00 | 62 | 1011.1 |
| 20260903053007 | 86 | 144 | 0.0 | 2.0 | 0.00 | 0.00 | 0.00 | 59 | 1011.1 |
| 20260903051504 | 86 | 167 | 2.0 | 4.0 | 0.00 | 0.00 | 0.00 | 57 | 1011.1 |
| 20260903050100 | 85 | 189 | 1.0 | 3.0 | 0.00 | 0.00 | 0.00 | 63 | 1011.1 |
| 20260903044600 | 87 | 120 | 0.0 | 4.0 | 0.00 | 0.00 | 0.00 | 59 | 1011.1 |
| 20260903043059 | 87 | 177 | 1.0 | 3.0 | 0.00 | 0.00 | 0.00 | 57 | 1011.1 |
| 20260903041559 | 88 | 162 | 1.0 | 3.0 | 0.00 | 0.00 | 0.00 | 55 | 1011.0 |
| 20260903040059 | 88 | 159 | 1.0 | 4.0 | 0.00 | 0.00 | 0.00 | 55 | 1011.1 |
| 20260903034557 | 88 | 153 | 2.0 | 3.0 | 0.00 | 0.00 | 0.00 | 55 | 1011.1 |
| 20260903033102 | 88 | 160 | 1.0 | 3.0 | 0.00 | 0.00 | 0.00 | 56 | 1011.1 |
| 20260903031557 | 89 | 128 | 0.0 | 3.0 | 0.00 | 0.00 | 0.00 | 56 | 1011.1 |
| 20260903030119 | 89 | 156 | 0.0 | 3.0 | 0.00 | 0.00 | 0.00 | 54 | 1011.0 |
| 20260903024556 | 90 | 155 | 2.0 | 4.0 | 0.00 | 0.00 | 0.00 | 53 | 1011.0 |
| 20260903023056 | 90 | 166 | 1.0 | 3.0 | 0.00 | 0.00 | 0.00 | 54 | 1011.0 |
| 20260903021555 | 90 | 130 | 0.0 | 4.0 | 0.00 | 0.00 | 0.00 | 56 | 1010.8 |
| 20260903020105 | 90 | 158 | 0.0 | 2.0 | 0.00 | 0.00 | 0.00 | 54 | 1010.6 |
| 20260903014554 | 91 | 107 | 1.0 | 4.0 | 0.00 | 0.00 | 0.00 | 54 | 1010.5 |
| 20260903013055 | 92 | 170 | 0.0 | 3.0 | 0.00 | 0.00 | 0.00 | 50 | 1010.3 |
| 20260903011554 | 93 | 180 | 0.0 | 3.0 | 0.00 | 0.00 | 0.00 | 49 | 1010.2 |
| 20260903010053 | 94 | 189 | 0.0 | 4.0 | 0.00 | 0.00 | 0.00 | 47 | 1010.1 |
| 20260903004552 | 96 | 162 | 2.0 | 5.0 | 0.00 | 0.00 | 0.00 | 45 | 1010.0 |
| 20260903003051 | 96 | 97 | 2.0 | 5.0 | 0.00 | 0.00 | 0.00 | 44 | 1010.0 |
| 20260903001605 | 98 | 168 | 2.0 | 7.0 | 0.00 | 0.00 | 0.00 | 42 | 1009.9 |
| 20260903000056 | 99 | 149 | 1.0 | 6.0 | 0.00 | 0.00 | 0.00 | 41 | 1010.0 |